Location: Sweet Grass
(48.9965°N, 111.9649°W)
Time: 08:07:32
(UTC+00:00)

SPROUT - Pass Details

Date: 10 April 2023
Orbit: 558 x 566 km, 98.0° (Epoch: 28 May)

Event Time Altitude Azimuth Distance (km) Brightness Sun altitude
Rises 23:37:05 0° 353° (N) 2,771 ? 24.1°
Enters shadow 00:26:36 -78° 151° (SSE) 13,057 ? 16.1°
Exits shadow 01:00:30 -25° 35° (NE) 6,610 ? 10.6°
